Precipitable_Water
0.30 0.23 0.21 0.20 0.22 0.22 0.22 0.21 0.20 0.19 0.17 0.17 0.16 0.15 0.14 0.13 0.13 0.15 0.14 0.15 0.16 0.12 0.10 0.09 0.10 0.11 0.11 0.12 0.13 0.13 0.14 0.15 0.16 0.18 0.19 0.20 0.20 0.20 0.24 0.28 0.29 0.32 0.38 0.49 0.56 0.64 0.73 0.82 0.94 1.03 1.10 1.17 1.27 1.29 1.29 1.29 1.30 1.34 1.32 1.28 1.22 1.24 1.27 1.22 1.17 1.16 1.13 1.07 1.06 1.05 1.02 1.00 1.08 1.11 1.14 1.15 1.16 1.10 1.04 1.04 1.10 1.17 1.19 1.19 1.23 1.31
0.30 0.23 0.23 0.25 0.26 0.26 0.25 0.25 0.24 0.22 0.21 0.18 0.17 0.16 0.15 0.15 0.12 0.15 0.15 0.17 0.17 0.13 0.10 0.11 0.10 0.10 0.10 0.10 0.11 0.11 0.11 0.10 0.11 0.14 0.17 0.20 0.21 0.21 0.21 0.26 0.29 0.31 0.37 0.43 0.52 0.63 0.72 0.80 0.91 1.01 1.06 1.10 1.11 1.19 1.25 1.24 1.24 1.28 1.35 1.29 1.24 1.25 1.23 1.19 1.17 1.16 1.13 1.11 1.07 1.01 1.01 1.05 1.08 1.09 1.09 1.09 1.14 1.11 1.09 1.10 1.14 1.19 1.19 1.19 1.23 1.31
0.23 0.21 0.25 0.28 0.29 0.29 0.28 0.27 0.26 0.23 0.21 0.20 0.18 0.17 0.15 0.14 0.15 0.16 0.16 0.17 0.17 0.16 0.12 0.13 0.11 0.10 0.11 0.12 0.12 0.12 0.11 0.11 0.11 0.12 0.13 0.16 0.20 0.21 0.21 0.22 0.28 0.32 0.33 0.37 0.44 0.61 0.70 0.76 0.82 0.90 1.00 1.07 1.12 1.18 1.20 1.24 1.28 1.32 1.35 1.32 1.26 1.23 1.20 1.19 1.19 1.18 1.11 1.13 1.13 1.10 1.09 1.10 1.11 1.20 1.21 1.19 1.20 1.17 1.10 1.14 1.18 1.21 1.20 1.20 1.24 1.33
0.18 0.21 0.26 0.29 0.30 0.28 0.27 0.26 0.26 0.25 0.24 0.21 0.19 0.17 0.14 0.16 0.14 0.12 0.17 0.17 0.18 0.16 0.14 0.14 0.12 0.11 0.12 0.13 0.13 0.12 0.11 0.11 0.12 0.12 0.12 0.14 0.15 0.19 0.20 0.21 0.24 0.29 0.32 0.34 0.40 0.50 0.66 0.77 0.81 0.85 0.92 1.00 1.11 1.16 1.20 1.24 1.26 1.32 1.32 1.32 1.25 1.22 1.22 1.20 1.20 1.19 1.20 1.21 1.20 1.19 1.16 1.18 1.17 1.14 1.21 1.23 1.23 1.18 1.14 1.14 1.20 1.21 1.22 1.22 1.25 1.32
0.20 0.26 0.30 0.30 0.28 0.27 0.25 0.26 0.24 0.23 0.21 0.23 0.21 0.19 0.17 0.17 0.17 0.16 0.15 0.17 0.18 0.18 0.17 0.16 0.14 0.12 0.12 0.12 0.12 0.12 0.12 0.11 0.11 0.11 0.11 0.12 0.14 0.17 0.21 0.22 0.22 0.23 0.28 0.32 0.39 0.48 0.60 0.72 0.78 0.79 0.84 0.94 0.98 1.07 1.11 1.14 1.17 1.24 1.26 1.31 1.26 1.23 1.21 1.22 1.22 1.23 1.24 1.24 1.21 1.18 1.17 1.20 1.18 1.21 1.19 1.16 1.13 1.14 1.14 1.16 1.17 1.19 1.24 1.25 1.26 1.30
0.21 0.28 0.31 0.28 0.28 0.27 0.25 0.23 0.24 0.23 0.20 0.21 0.22 0.21 0.21 0.21 0.20 0.19 0.19 0.17 0.16 0.14 0.16 0.15 0.11 0.10 0.12 0.12 0.11 0.11 0.12 0.12 0.12 0.11 0.10 0.09 0.10 0.13 0.17 0.20 0.23 0.23 0.26 0.29 0.34 0.45 0.56 0.66 0.77 0.83 0.85 0.87 0.93 1.01 1.07 1.11 1.13 1.22 1.26 1.32 1.28 1.24 1.23 1.21 1.23 1.26 1.25 1.21 1.15 1.08 1.02 0.97 0.99 0.97 1.00 0.99 1.00 1.05 1.07 1.10 1.20 1.24 1.26 1.27 1.27 1.30
0.21 0.26 0.26 0.25 0.26 0.26 0.25 0.23 0.24 0.25 0.21 0.20 0.20 0.24 0.23 0.22 0.21 0.20 0.18 0.18 0.14 0.12 0.17 0.19 0.12 0.09 0.13 0.12 0.13 0.13 0.12 0.11 0.13 0.12 0.11 0.11 0.10 0.10 0.13 0.18 0.22 0.23 0.24 0.28 0.31 0.40 0.52 0.63 0.71 0.79 0.83 0.86 0.90 0.97 1.05 1.08 1.13 1.22 1.29 1.33 1.30 1.22 1.21 1.24 1.24 1.26 1.25 1.19 1.14 1.08 1.03 1.02 1.00 0.96 1.02 1.12 1.14 1.12 1.16 1.21 1.21 1.23 1.27 1.28 1.27 1.30
0.21 0.21 0.22 0.23 0.23 0.23 0.23 0.21 0.25 0.25 0.22 0.19 0.23 0.23 0.23 0.22 0.19 0.19 0.18 0.18 0.16 0.18 0.19 0.18 0.16 0.12 0.10 0.11 0.16 0.15 0.13 0.12 0.12 0.12 0.12 0.12 0.12 0.12 0.12 0.15 0.19 0.24 0.25 0.27 0.29 0.35 0.46 0.59 0.67 0.71 0.82 0.88 0.88 0.94 1.01 1.04 1.10 1.17 1.25 1.33 1.30 1.25 1.21 1.23 1.24 1.25 1.25 1.17 1.13 1.09 1.07 1.09 1.08 1.03 1.03 1.09 1.12 1.17 1.21 1.21 1.22 1.24 1.26 1.29 1.30 1.30
0.24 0.21 0.21 0.20 0.21 0.20 0.20 0.24 0.26 0.27 0.22 0.21 0.23 0.24 0.22 0.21 0.20 0.19 0.18 0.17 0.17 0.16 0.14 0.15 0.16 0.12 0.10 0.13 0.17 0.14 0.12 0.11 0.11 0.10 0.10 0.11 0.12 0.13 0.13 0.15 0.17 0.22 0.26 0.28 0.31 0.33 0.41 0.51 0.61 0.70 0.80 0.88 0.92 0.94 0.94 1.00 1.05 1.15 1.27 1.34 1.33 1.26 1.22 1.23 1.23 1.23 1.24 1.20 1.15 1.12 1.11 1.09 1.14 1.13 1.11 1.14 1.16 1.15 1.19 1.19 1.23 1.22 1.25 1.27 1.29 1.31
0.29 0.28 0.25 0.24 0.21 0.18 0.22 0.25 0.26 0.26 0.22 0.24 0.26 0.24 0.23 0.21 0.20 0.19 0.17 0.16 0.16 0.16 0.12 0.13 0.15 0.12 0.10 0.13 0.15 0.15 0.13 0.11 0.11 0.11 0.12 0.11 0.11 0.12 0.15 0.16 0.17 0.20 0.23 0.26 0.29 0.36 0.41 0.47 0.55 0.64 0.73 0.86 0.94 0.96 1.00 1.04 1.09 1.19 1.30 1.35 1.31 1.24 1.21 1.22 1.22 1.23 1.23 1.21 1.18 1.13 1.11 1.09 1.11 1.13 1.13 1.12 1.10 1.12 1.16 1.15 1.18 1.21 1.22 1.25 1.27 1.30
0.31 0.37 0.38 0.29 0.23 0.26 0.27 0.28 0.28 0.27 0.27 0.26 0.23 0.22 0.21 0.20 0.19 0.20 0.19 0.17 0.16 0.13 0.12 0.13 0.14 0.14 0.10 0.12 0.14 0.12 0.12 0.12 0.12 0.12 0.12 0.12 0.12 0.11 0.10 0.13 0.16 0.19 0.21 0.25 0.26 0.32 0.41 0.52 0.55 0.61 0.67 0.78 0.90 1.01 1.07 1.07 1.11 1.20 1.31 1.34 1.30 1.24 1.20 1.21 1.20 1.21 1.20 1.20 1.18 1.13 1.11 1.11 1.09 1.11 1.10 1.06 1.06 1.09 1.10 1.10 1.14 1.18 1.21 1.25 1.26 1.29
0.30 0.30 0.30 0.29 0.31 0.31 0.32 0.28 0.29 0.29 0.28 0.25 0.22 0.21 0.20 0.18 0.19 0.17 0.16 0.17 0.12 0.10 0.12 0.13 0.14 0.15 0.11 0.11 0.14 0.15 0.14 0.14 0.13 0.12 0.11 0.12 0.12 0.12 0.12 0.13 0.14 0.18 0.20 0.24 0.27 0.30 0.37 0.45 0.56 0.64 0.65 0.75 0.87 0.97 1.04 1.10 1.16 1.21 1.30 1.33 1.30 1.25 1.20 1.20 1.20 1.20 1.20 1.18 1.17 1.15 1.14 1.11 1.11 1.11 1.10 1.06 1.03 1.06 1.04 1.07 1.09 1.17 1.21 1.23 1.26 1.27
0.25 0.26 0.30 0.30 0.32 0.29 0.28 0.27 0.27 0.28 0.27 0.25 0.23 0.22 0.18 0.15 0.15 0.12 0.13 0.11 0.11 0.09 0.12 0.15 0.14 0.13 0.12 0.12 0.13 0.14 0.14 0.13 0.13 0.12 0.11 0.11 0.12 0.12 0.12 0.13 0.14 0.17 0.21 0.22 0.25 0.28 0.36 0.41 0.46 0.59 0.66 0.76 0.85 0.91 1.00 1.08 1.14 1.22 1.29 1.30 1.27 1.20 1.17 1.17 1.17 1.16 1.17 1.16 1.16 1.14 1.14 1.13 1.14 1.12 1.12 1.11 1.09 1.09 1.06 1.07 1.09 1.13 1.14 1.19 1.19 1.21
0.23 0.28 0.28 0.30 0.30 0.32 0.28 0.20 0.21 0.21 0.24 0.23 0.21 0.20 0.17 0.13 0.12 0.10 0.10 0.12 0.12 0.14 0.15 0.14 0.16 0.13 0.15 0.15 0.16 0.14 0.14 0.14 0.14 0.14 0.13 0.12 0.12 0.13 0.13 0.13 0.14 0.16 0.19 0.21 0.25 0.27 0.31 0.40 0.46 0.53 0.61 0.70 0.79 0.88 0.97 1.06 1.11 1.18 1.25 1.28 1.25 1.18 1.14 1.15 1.17 1.16 1.15 1.14 1.15 1.17 1.15 1.14 1.13 1.11 1.14 1.14 1.12 1.12 1.11 1.11 1.10 1.13 1.14 1.14 1.16 1.18
0.19 0.19 0.24 0.27 0.24 0.34 0.30 0.25 0.24 0.23 0.24 0.23 0.25 0.21 0.17 0.16 0.12 0.09 0.10 0.09 0.10 0.11 0.14 0.17 0.14 0.12 0.11 0.11 0.16 0.16 0.16 0.16 0.15 0.15 0.14 0.13 0.12 0.12 0.12 0.12 0.13 0.15 0.18 0.20 0.23 0.28 0.29 0.36 0.46 0.52 0.59 0.66 0.77 0.84 0.91 1.00 1.06 1.11 1.12 1.18 1.22 1.19 1.14 1.14 1.14 1.15 1.12 1.13 1.15 1.17 1.17 1.16 1.14 1.13 1.15 1.16 1.17 1.14 1.12 1.13 1.12 1.15 1.18 1.14 1.15 1.18
0.24 0.23 0.29 0.33 0.31 0.33 0.29 0.31 0.30 0.26 0.24 0.26 0.25 0.26 0.19 0.14 0.20 0.14 0.13 0.13 0.13 0.12 0.11 0.12 0.12 0.15 0.13 0.16 0.18 0.17 0.16 0.17 0.17 0.16 0.14 0.14 0.13 0.12 0.13 0.14 0.13 0.15 0.18 0.20 0.22 0.28 0.32 0.35 0.41 0.52 0.59 0.65 0.74 0.81 0.87 0.92 1.00 1.05 1.06 1.10 1.17 1.17 1.09 1.09 1.12 1.12 1.09 1.11 1.15 1.17 1.14 1.14 1.14 1.16 1.18 1.18 1.19 1.17 1.16 1.14 1.12 1.14 1.16 1.15 1.17 1.22
0.27 0.23 0.31 0.33 0.35 0.34 0.33 0.33 0.31 0.31 0.18 0.22 0.23 0.19 0.20 0.25 0.22 0.19 0.17 0.17 0.16 0.13 0.10 0.12 0.12 0.12 0.14 0.13 0.13 0.13 0.13 0.13 0.14 0.13 0.13 0.14 0.14 0.13 0.14 0.15 0.14 0.15 0.18 0.21 0.23 0.26 0.31 0.35 0.41 0.49 0.57 0.65 0.74 0.80 0.82 0.86 0.94 0.98 1.01 1.03 1.08 1.18 1.15 1.12 1.14 1.11 1.12 1.13 1.13 1.14 1.14 1.13 1.12 1.14 1.14 1.16 1.17 1.17 1.18 1.16 1.15 1.14 1.17 1.19 1.18 1.21
0.27 0.25 0.34 0.33 0.30 0.36 0.38 0.36 0.34 0.32 0.31 0.25 0.19 0.22 0.28 0.29 0.28 0.21 0.14 0.15 0.13 0.10 0.10 0.12 0.09 0.10 0.11 0.08 0.10 0.11 0.15 0.20 0.23 0.19 0.17 0.15 0.17 0.17 0.16 0.17 0.17 0.18 0.20 0.23 0.25 0.26 0.31 0.35 0.39 0.47 0.57 0.63 0.69 0.76 0.81 0.86 0.92 0.96 0.98 0.96 1.00 1.11 1.11 1.10 1.14 1.12 1.11 1.11 1.12 1.11 1.10 1.12 1.13 1.15 1.17 1.19 1.18 1.18 1.16 1.14 1.14 1.17 1.16 1.16 1.18 1.22
0.39 0.25 0.28 0.33 0.34 0.36 0.39 0.38 0.33 0.35 0.34 0.26 0.23 0.29 0.21 0.18 0.17 0.20 0.17 0.11 0.10 0.09 0.10 0.11 0.12 0.12 0.10 0.08 0.10 0.11 0.12 0.17 0.24 0.28 0.30 0.28 0.21 0.18 0.18 0.19 0.21 0.25 0.31 0.33 0.33 0.32 0.33 0.37 0.42 0.46 0.54 0.62 0.68 0.77 0.82 0.84 0.90 0.95 0.98 1.00 1.03 1.07 1.11 1.10 1.12 1.12 1.13 1.14 1.12 1.09 1.07 1.09 1.13 1.17 1.19 1.21 1.21 1.19 1.14 1.10 1.10 1.13 1.16 1.19 1.20 1.22
0.42 0.27 0.26 0.35 0.35 0.37 0.38 0.36 0.26 0.28 0.32 0.32 0.31 0.26 0.27 0.23 0.21 0.18 0.16 0.17 0.14 0.10 0.10 0.08 0.11 0.08 0.10 0.12 0.13 0.15 0.19 0.21 0.29 0.32 0.34 0.35 0.36 0.37 0.37 0.39 0.38 0.35 0.35 0.36 0.37 0.37 0.36 0.37 0.41 0.47 0.52 0.59 0.65 0.72 0.80 0.87 0.91 0.91 0.95 0.99 1.04 1.12 1.19 1.18 1.16 1.15 1.12 1.13 1.13 1.08 1.09 1.13 1.16 1.18 1.18 1.20 1.19 1.16 1.13 1.10 1.10 1.13 1.14 1.16 1.20 1.22
0.36 0.39 0.23 0.31 0.38 0.38 0.29 0.34 0.29 0.30 0.25 0.25 0.25 0.24 0.25 0.23 0.26 0.23 0.24 0.16 0.13 0.11 0.10 0.09 0.08 0.09 0.12 0.17 0.17 0.18 0.26 0.29 0.36 0.38 0.39 0.38 0.37 0.35 0.38 0.41 0.42 0.42 0.40 0.40 0.41 0.40 0.39 0.39 0.44 0.50 0.53 0.58 0.65 0.71 0.76 0.80 0.84 0.90 0.98 1.00 1.04 1.06 1.10 1.11 1.12 1.13 1.12 1.15 1.13 1.07 1.05 1.09 1.14 1.16 1.19 1.20 1.20 1.16 1.14 1.11 1.12 1.15 1.17 1.18 1.17 1.21
0.35 0.35 0.27 0.30 0.31 0.31 0.32 0.38 0.36 0.34 0.30 0.25 0.24 0.22 0.23 0.21 0.19 0.15 0.14 0.20 0.17 0.14 0.12 0.11 0.09 0.11 0.15 0.20 0.19 0.20 0.25 0.35 0.42 0.45 0.42 0.40 0.40 0.39 0.43 0.46 0.47 0.44 0.44 0.46 0.46 0.47 0.44 0.42 0.45 0.54 0.55 0.59 0.65 0.69 0.73 0.78 0.82 0.88 0.91 0.95 1.00 1.05 1.06 1.05 1.09 1.11 1.11 1.13 1.11 1.05 1.05 1.10 1.15 1.17 1.18 1.17 1.17 1.15 1.14 1.11 1.13 1.17 1.18 1.15 1.18 1.21
0.42 0.39 0.34 0.27 0.29 0.31 0.36 0.40 0.42 0.38 0.34 0.28 0.26 0.23 0.24 0.22 0.21 0.18 0.13 0.15 0.18 0.16 0.17 0.16 0.14 0.12 0.22 0.22 0.25 0.29 0.36 0.41 0.44 0.47 0.44 0.41 0.40 0.43 0.43 0.45 0.47 0.50 0.52 0.53 0.52 0.51 0.48 0.45 0.46 0.54 0.55 0.56 0.59 0.65 0.73 0.77 0.80 0.83 0.90 0.96 1.01 1.00 1.01 1.04 1.07 1.11 1.11 1.11 1.08 1.05 1.07 1.12 1.13 1.14 1.15 1.14 1.15 1.14 1.13 1.12 1.15 1.19 1.17 1.16 1.18 1.23
0.49 0.35 0.30 0.29 0.34 0.38 0.41 0.44 0.41 0.37 0.33 0.28 0.27 0.27 0.24 0.19 0.19 0.18 0.17 0.17 0.14 0.16 0.14 0.15 0.13 0.13 0.19 0.22 0.26 0.31 0.39 0.45 0.45 0.45 0.41 0.39 0.40 0.41 0.42 0.43 0.48 0.51 0.54 0.59 0.61 0.59 0.52 0.46 0.47 0.57 0.57 0.57 0.59 0.64 0.70 0.74 0.77 0.83 0.88 0.92 0.97 0.99 1.01 1.05 1.08 1.13 1.12 1.09 1.09 1.09 1.08 1.09 1.12 1.12 1.13 1.12 1.14 1.13 1.14 1.14 1.16 1.20 1.19 1.18 1.20 1.20
0.36 0.38 0.34 0.26 0.26 0.28 0.32 0.35 0.33 0.33 0.29 0.25 0.23 0.25 0.24 0.24 0.22 0.21 0.21 0.23 0.15 0.15 0.16 0.15 0.11 0.12 0.17 0.25 0.29 0.34 0.36 0.37 0.37 0.39 0.39 0.39 0.40 0.42 0.42 0.43 0.49 0.57 0.61 0.64 0.67 0.65 0.56 0.47 0.45 0.53 0.57 0.59 0.61 0.63 0.68 0.71 0.76 0.81 0.85 0.91 0.97 1.01 1.05 1.06 1.10 1.11 1.10 1.07 1.08 1.09 1.08 1.09 1.10 1.09 1.11 1.11 1.14 1.14 1.16 1.15 1.16 1.19 1.19 1.18 1.18 1.22
0.42 0.38 0.34 0.25 0.21 0.19 0.18 0.20 0.22 0.20 0.21 0.24 0.24 0.23 0.24 0.21 0.20 0.20 0.15 0.16 0.13 0.14 0.17 0.14 0.12 0.14 0.18 0.23 0.25 0.28 0.29 0.29 0.30 0.35 0.44 0.44 0.41 0.41 0.40 0.44 0.52 0.58 0.63 0.68 0.73 0.68 0.57 0.46 0.44 0.51 0.58 0.62 0.64 0.64 0.67 0.70 0.75 0.81 0.84 0.87 0.94 0.96 1.01 1.05 1.10 1.09 1.08 1.08 1.08 1.08 1.07 1.08 1.09 1.07 1.09 1.12 1.14 1.16 1.16 1.17 1.17 1.19 1.20 1.20 1.19 1.22
0.42 0.42 0.39 0.35 0.30 0.27 0.29 0.33 0.38 0.35 0.27 0.19 0.20 0.20 0.20 0.21 0.21 0.20 0.19 0.16 0.12 0.15 0.14 0.14 0.14 0.14 0.16 0.19 0.21 0.22 0.24 0.26 0.31 0.41 0.44 0.44 0.43 0.42 0.42 0.46 0.53 0.57 0.57 0.61 0.69 0.73 0.63 0.52 0.48 0.52 0.59 0.60 0.64 0.67 0.68 0.71 0.76 0.80 0.82 0.84 0.87 0.91 0.96 1.02 1.04 1.06 1.08 1.09 1.07 1.07 1.07 1.07 1.07 1.08 1.10 1.14 1.17 1.18 1.18 1.18 1.18 1.20 1.19 1.20 1.20 1.23
0.44 0.37 0.38 0.39 0.38 0.38 0.39 0.38 0.40 0.38 0.26 0.24 0.22 0.21 0.21 0.20 0.20 0.18 0.15 0.12 0.17 0.15 0.11 0.13 0.15 0.15 0.15 0.17 0.19 0.20 0.24 0.29 0.36 0.42 0.45 0.42 0.41 0.42 0.44 0.48 0.54 0.55 0.56 0.58 0.64 0.67 0.64 0.55 0.49 0.51 0.59 0.63 0.66 0.69 0.70 0.74 0.77 0.78 0.79 0.78 0.81 0.86 0.89 0.94 0.98 1.02 1.05 1.07 1.07 1.07 1.06 1.08 1.10 1.12 1.13 1.18 1.20 1.18 1.20 1.21 1.20 1.20 1.22 1.21 1.20 1.22
0.42 0.35 0.40 0.41 0.38 0.41 0.42 0.41 0.41 0.38 0.30 0.27 0.24 0.23 0.21 0.23 0.21 0.18 0.16 0.17 0.18 0.15 0.11 0.12 0.16 0.15 0.15 0.17 0.19 0.22 0.25 0.27 0.31 0.39 0.42 0.43 0.44 0.44 0.45 0.49 0.53 0.53 0.53 0.54 0.60 0.67 0.65 0.59 0.56 0.54 0.59 0.67 0.69 0.70 0.72 0.76 0.79 0.83 0.82 0.80 0.81 0.84 0.87 0.91 0.93 0.97 1.00 1.02 1.05 1.06 1.08 1.11 1.14 1.16 1.16 1.19 1.19 1.19 1.20 1.21 1.21 1.21 1.21 1.20 1.20 1.23
0.45 0.37 0.41 0.42 0.38 0.40 0.41 0.41 0.40 0.36 0.32 0.28 0.25 0.23 0.24 0.23 0.22 0.21 0.19 0.20 0.19 0.16 0.16 0.16 0.16 0.16 0.17 0.18 0.20 0.23 0.27 0.30 0.36 0.42 0.45 0.43 0.42 0.43 0.47 0.51 0.52 0.51 0.51 0.52 0.57 0.66 0.70 0.67 0.60 0.56 0.56 0.67 0.70 0.71 0.73 0.75 0.77 0.78 0.77 0.78 0.85 0.87 0.92 0.96 0.98 0.99 1.00 1.00 1.02 1.07 1.10 1.13 1.15 1.15 1.15 1.17 1.17 1.19 1.21 1.22 1.21 1.19 1.18 1.18 1.19 1.22
0.44 0.36 0.44 0.42 0.37 0.36 0.40 0.41 0.40 0.37 0.34 0.27 0.28 0.26 0.25 0.24 0.23 0.24 0.24 0.23 0.23 0.20 0.19 0.19 0.18 0.18 0.18 0.22 0.23 0.28 0.34 0.37 0.41 0.43 0.44 0.45 0.44 0.45 0.47 0.49 0.50 0.49 0.49 0.50 0.51 0.64 0.77 0.74 0.65 0.60 0.57 0.60 0.68 0.70 0.70 0.72 0.74 0.76 0.76 0.78 0.81 0.83 0.89 0.93 0.94 0.96 0.98 0.96 1.02 1.07 1.10 1.13 1.15 1.16 1.14 1.16 1.20 1.21 1.23 1.24 1.22 1.17 1.17 1.17 1.18 1.20
0.47 0.39 0.46 0.41 0.33 0.32 0.37 0.38 0.38 0.35 0.34 0.29 0.27 0.27 0.27 0.27 0.24 0.26 0.24 0.23 0.21 0.17 0.17 0.18 0.16 0.15 0.17 0.27 0.27 0.33 0.36 0.38 0.42 0.43 0.47 0.49 0.51 0.52 0.53 0.51 0.49 0.48 0.49 0.50 0.52 0.56 0.76 0.78 0.68 0.61 0.55 0.55 0.64 0.70 0.71 0.72 0.74 0.75 0.75 0.78 0.81 0.83 0.87 0.89 0.90 0.92 0.94 0.95 1.00 1.04 1.06 1.11 1.16 1.16 1.16 1.18 1.19 1.21 1.24 1.27 1.23 1.17 1.15 1.14 1.15 1.17
0.44 0.42 0.38 0.37 0.30 0.29 0.37 0.40 0.36 0.33 0.29 0.23 0.23 0.29 0.37 0.36 0.34 0.33 0.32 0.32 0.29 0.28 0.23 0.17 0.15 0.18 0.23 0.28 0.28 0.30 0.35 0.41 0.45 0.48 0.51 0.53 0.56 0.56 0.54 0.53 0.51 0.50 0.51 0.52 0.53 0.54 0.63 0.78 0.74 0.66 0.63 0.61 0.63 0.70 0.74 0.77 0.76 0.74 0.76 0.78 0.81 0.85 0.86 0.86 0.86 0.88 0.91 0.95 1.00 1.02 1.06 1.11 1.14 1.16 1.16 1.17 1.21 1.25 1.26 1.25 1.22 1.17 1.12 1.10 1.14 1.15
0.45 0.44 0.40 0.42 0.29 0.31 0.37 0.38 0.40 0.32 0.22 0.25 0.42 0.46 0.46 0.41 0.39 0.33 0.32 0.36 0.39 0.37 0.29 0.28 0.27 0.30 0.34 0.38 0.38 0.38 0.41 0.44 0.48 0.55 0.62 0.62 0.59 0.58 0.57 0.55 0.55 0.57 0.58 0.56 0.58 0.59 0.58 0.70 0.76 0.73 0.70 0.69 0.68 0.71 0.78 0.79 0.76 0.76 0.79 0.80 0.83 0.83 0.82 0.83 0.84 0.87 0.91 0.95 0.97 1.00 1.04 1.09 1.14 1.16 1.17 1.19 1.24 1.25 1.24 1.24 1.21 1.16 1.13 1.14 1.14 1.11
0.40 0.42 0.40 0.43 0.34 0.31 0.37 0.38 0.31 0.23 0.26 0.42 0.49 0.51 0.52 0.49 0.48 0.43 0.41 0.41 0.40 0.42 0.45 0.44 0.45 0.45 0.48 0.51 0.49 0.49 0.51 0.56 0.62 0.65 0.68 0.69 0.66 0.62 0.58 0.60 0.61 0.66 0.62 0.60 0.60 0.58 0.56 0.62 0.75 0.77 0.74 0.74 0.75 0.77 0.83 0.84 0.87 0.88 0.90 0.93 0.91 0.93 0.91 0.90 0.88 0.89 0.91 0.93 0.97 1.00 1.03 1.07 1.13 1.17 1.19 1.21 1.23 1.24 1.23 1.23 1.21 1.17 1.12 1.11 1.10 1.10
0.37 0.38 0.40 0.39 0.39 0.38 0.34 0.32 0.22 0.25 0.40 0.47 0.49 0.51 0.53 0.53 0.51 0.48 0.41 0.45 0.46 0.48 0.50 0.42 0.45 0.49 0.53 0.54 0.55 0.58 0.61 0.64 0.66 0.69 0.69 0.67 0.66 0.64 0.66 0.70 0.71 0.69 0.63 0.62 0.61 0.59 0.59 0.62 0.74 0.81 0.78 0.80 0.81 0.80 0.83 0.87 0.94 0.94 0.92 0.95 0.94 0.96 0.97 0.96 0.93 0.93 0.95 0.96 0.99 1.00 1.02 1.06 1.12 1.18 1.21 1.21 1.22 1.22 1.21 1.21 1.20 1.13 1.10 1.09 1.12 1.14
0.39 0.41 0.41 0.35 0.41 0.29 0.32 0.32 0.31 0.40 0.39 0.42 0.43 0.46 0.47 0.41 0.44 0.44 0.36 0.42 0.53 0.57 0.55 0.51 0.54 0.57 0.58 0.58 0.59 0.60 0.68 0.69 0.64 0.61 0.66 0.63 0.65 0.72 0.80 0.79 0.76 0.71 0.69 0.66 0.67 0.65 0.70 0.74 0.82 0.89 0.87 0.83 0.82 0.81 0.83 0.90 0.94 0.92 0.93 0.94 0.96 0.97 0.98 0.99 0.97 0.96 0.96 0.96 0.99 1.02 1.05 1.09 1.14 1.19 1.20 1.21 1.20 1.18 1.19 1.19 1.17 1.13 1.11 1.09 1.11 1.09
0.40 0.36 0.39 0.35 0.33 0.37 0.31 0.29 0.30 0.29 0.25 0.33 0.45 0.54 0.59 0.59 0.59 0.59 0.51 0.42 0.58 0.59 0.60 0.57 0.56 0.61 0.60 0.61 0.59 0.62 0.70 0.60 0.54 0.54 0.63 0.67 0.71 0.80 0.85 0.84 0.81 0.78 0.74 0.73 0.77 0.80 0.83 0.82 0.89 0.95 0.91 0.86 0.85 0.88 0.92 0.96 0.96 0.97 0.96 0.97 0.99 0.99 1.00 1.00 0.98 0.99 0.99 0.99 1.01 1.04 1.08 1.14 1.19 1.21 1.21 1.21 1.18 1.17 1.18 1.21 1.19 1.13 1.11 1.08 1.06 1.06
0.38 0.40 0.38 0.34 0.32 0.33 0.30 0.27 0.28 0.25 0.29 0.42 0.46 0.53 0.57 0.61 0.61 0.60 0.48 0.37 0.53 0.58 0.60 0.61 0.60 0.62 0.64 0.64 0.65 0.68 0.62 0.51 0.51 0.55 0.68 0.74 0.75 0.82 0.76 0.76 0.80 0.82 0.83 0.82 0.82 0.82 0.86 0.86 0.94 0.97 0.95 0.94 0.89 0.93 0.98 1.00 1.01 0.99 0.97 0.98 0.99 0.99 0.98 0.98 1.00 1.03 1.02 1.03 1.06 1.10 1.15 1.21 1.24 1.24 1.23 1.21 1.20 1.18 1.18 1.18 1.13 1.10 1.10 1.10 1.12 1.11
0.30 0.31 0.31 0.29 0.31 0.31 0.30 0.28 0.27 0.34 0.32 0.43 0.50 0.54 0.58 0.60 0.62 0.53 0.31 0.32 0.53 0.60 0.64 0.65 0.63 0.65 0.68 0.67 0.67 0.63 0.55 0.48 0.51 0.58 0.72 0.76 0.79 0.83 0.78 0.74 0.78 0.80 0.86 0.87 0.86 0.88 0.94 0.95 1.01 0.99 0.96 0.94 0.95 1.01 1.02 1.03 1.02 1.00 0.99 0.98 1.01 0.99 0.98 0.99 1.02 1.06 1.08 1.11 1.14 1.18 1.22 1.24 1.25 1.26 1.25 1.23 1.21 1.18 1.20 1.20 1.14 1.10 1.07 1.11 1.12 1.09
0.24 0.26 0.28 0.25 0.29 0.30 0.29 0.29 0.32 0.36 0.46 0.50 0.51 0.56 0.58 0.60 0.55 0.36 0.27 0.40 0.56 0.61 0.66 0.68 0.67 0.69 0.70 0.69 0.65 0.57 0.65 0.75 0.75 0.76 0.78 0.80 0.79 0.80 0.84 0.85 0.87 0.93 0.89 0.89 0.86 0.88 0.98 1.05 1.06 1.05 1.03 1.06 1.08 1.09 1.09 1.07 1.04 1.00 1.02 1.03 1.01 1.00 1.02 1.05 1.08 1.10 1.14 1.18 1.20 1.23 1.25 1.28 1.29 1.28 1.30 1.29 1.22 1.18 1.20 1.17 1.13 1.10 1.06 1.07 1.08 1.06
0.23 0.25 0.26 0.28 0.27 0.27 0.29 0.28 0.28 0.33 0.44 0.51 0.53 0.57 0.60 0.49 0.33 0.32 0.50 0.64 0.63 0.63 0.69 0.69 0.67 0.70 0.73 0.73 0.72 0.70 0.73 0.79 0.83 0.80 0.78 0.78 0.80 0.81 0.83 0.84 0.91 0.99 1.03 0.96 0.91 0.91 0.97 1.08 1.09 1.10 1.11 1.14 1.16 1.16 1.15 1.12 1.06 1.04 1.04 1.03 1.00 1.02 1.10 1.14 1.16 1.17 1.19 1.20 1.22 1.26 1.28 1.30 1.33 1.36 1.36 1.32 1.24 1.20 1.18 1.16 1.13 1.11 1.08 1.08 1.07 1.03
0.23 0.21 0.20 0.23 0.28 0.29 0.29 0.26 0.26 0.23 0.39 0.53 0.52 0.51 0.57 0.41 0.43 0.57 0.61 0.64 0.68 0.68 0.69 0.70 0.71 0.73 0.77 0.73 0.76 0.76 0.75 0.76 0.78 0.77 0.76 0.76 0.77 0.78 0.80 0.82 0.88 0.95 0.94 0.92 0.92 0.95 0.95 1.03 1.08 1.09 1.12 1.17 1.19 1.19 1.18 1.15 1.09 1.08 1.07 1.01 1.02 1.12 1.17 1.20 1.23 1.24 1.24 1.24 1.25 1.26 1.29 1.32 1.36 1.38 1.37 1.28 1.23 1.22 1.15 1.12 1.08 1.07 1.08 1.07 1.06 1.04
0.31 0.22 0.22 0.24 0.31 0.22 0.24 0.23 0.25 0.36 0.44 0.53 0.53 0.41 0.51 0.55 0.61 0.64 0.64 0.60 0.68 0.71 0.72 0.72 0.74 0.76 0.78 0.78 0.76 0.74 0.74 0.73 0.74 0.77 0.76 0.75 0.77 0.80 0.82 0.87 0.94 1.00 0.97 0.98 1.00 0.99 0.95 0.98 1.09 1.13 1.17 1.20 1.23 1.24 1.25 1.20 1.13 1.11 1.06 1.05 1.17 1.22 1.24 1.27 1.29 1.30 1.30 1.29 1.29 1.30 1.32 1.35 1.38 1.39 1.33 1.27 1.24 1.21 1.19 1.14 1.06 1.05 1.05 1.05 1.02 0.99
0.31 0.26 0.28 0.23 0.31 0.28 0.26 0.32 0.40 0.46 0.48 0.53 0.56 0.55 0.58 0.61 0.65 0.67 0.67 0.67 0.67 0.70 0.77 0.75 0.76 0.79 0.82 0.80 0.77 0.75 0.71 0.73 0.73 0.77 0.75 0.74 0.76 0.78 0.78 0.84 0.89 0.95 0.99 0.98 0.99 1.02 1.01 0.98 1.01 1.10 1.14 1.18 1.23 1.25 1.25 1.23 1.15 1.12 1.08 1.17 1.25 1.24 1.25 1.26 1.27 1.27 1.30 1.33 1.35 1.36 1.35 1.36 1.36 1.34 1.29 1.30 1.26 1.21 1.15 1.07 1.03 1.00 1.01 1.00 1.00 1.00
0.34 0.34 0.36 0.34 0.31 0.38 0.39 0.42 0.44 0.46 0.49 0.52 0.56 0.58 0.58 0.59 0.63 0.67 0.68 0.67 0.70 0.74 0.78 0.77 0.81 0.83 0.84 0.83 0.77 0.77 0.76 0.76 0.74 0.75 0.77 0.79 0.80 0.82 0.84 0.89 0.96 1.00 1.02 1.00 1.00 1.02 1.01 1.02 1.02 1.07 1.09 1.14 1.18 1.19 1.20 1.20 1.19 1.13 1.18 1.27 1.28 1.29 1.29 1.26 1.22 1.18 1.18 1.20 1.23 1.29 1.40 1.42 1.31 1.31 1.34 1.30 1.28 1.24 1.13 1.05 1.01 0.98 0.97 0.98 0.99 1.00
0.33 0.35 0.33 0.29 0.33 0.30 0.24 0.38 0.39 0.41 0.46 0.51 0.53 0.56 0.58 0.59 0.60 0.65 0.66 0.69 0.71 0.76 0.79 0.83 0.85 0.86 0.86 0.87 0.82 0.80 0.80 0.81 0.77 0.78 0.80 0.82 0.81 0.82 0.84 0.87 0.93 0.96 0.97 0.95 0.99 1.01 0.99 0.96 0.96 1.00 1.04 1.06 1.14 1.16 1.19 1.20 1.22 1.22 1.25 1.24 1.26 1.26 1.27 1.30 1.24 1.13 1.12 1.18 1.27 1.30 1.32 1.26 1.26 1.27 1.32 1.34 1.29 1.19 1.10 1.04 1.00 0.98 0.97 0.97 0.97 0.97
0.27 0.40 0.31 0.32 0.31 0.29 0.28 0.35 0.39 0.42 0.46 0.49 0.51 0.51 0.52 0.55 0.58 0.62 0.67 0.71 0.74 0.77 0.80 0.83 0.86 0.85 0.89 0.87 0.88 0.83 0.82 0.83 0.81 0.80 0.82 0.83 0.83 0.84 0.85 0.89 0.91 0.95 0.96 0.97 0.99 1.00 0.99 0.95 0.91 0.93 0.97 1.01 1.09 1.14 1.17 1.20 1.20 1.22 1.23 1.26 1.28 1.27 1.26 1.24 1.24 1.19 1.17 1.22 1.26 1.25 1.27 1.23 1.22 1.21 1.23 1.27 1.19 1.07 1.01 0.99 0.97 0.93 0.93 0.92 0.94 0.92
0.35 0.39 0.29 0.34 0.30 0.33 0.36 0.39 0.42 0.40 0.37 0.42 0.48 0.51 0.53 0.55 0.56 0.59 0.65 0.69 0.72 0.73 0.75 0.80 0.83 0.82 0.87 0.88 0.91 0.87 0.83 0.85 0.86 0.86 0.82 0.85 0.85 0.86 0.87 0.89 0.91 0.92 0.94 0.92 0.95 0.96 0.95 0.96 0.93 0.92 0.93 0.97 1.05 1.10 1.14 1.17 1.20 1.22 1.22 1.24 1.26 1.26 1.21 1.20 1.20 1.20 1.19 1.22 1.24 1.22 1.24 1.22 1.20 1.21 1.22 1.22 1.16 1.10 1.04 0.98 0.95 0.95 1.01 1.09 1.10 1.05
0.36 0.30 0.35 0.32 0.26 0.25 0.28 0.32 0.39 0.29 0.28 0.37 0.42 0.46 0.49 0.54 0.58 0.60 0.64 0.66 0.70 0.72 0.76 0.77 0.79 0.85 0.88 0.92 0.92 0.88 0.86 0.88 0.89 0.88 0.85 0.88 0.86 0.89 0.89 0.88 0.87 0.89 0.90 0.93 0.95 0.95 0.94 0.95 0.96 0.93 0.92 0.95 1.03 1.06 1.09 1.13 1.17 1.21 1.23 1.24 1.25 1.24 1.19 1.18 1.17 1.16 1.16 1.17 1.16 1.20 1.21 1.19 1.17 1.20 1.21 1.18 1.12 1.07 1.06 1.09 1.12 1.16 1.10 1.08 1.10 1.13
0.32 0.33 0.32 0.27 0.26 0.24 0.31 0.36 0.40 0.39 0.38 0.39 0.42 0.45 0.49 0.54 0.57 0.57 0.60 0.65 0.70 0.75 0.78 0.79 0.78 0.80 0.82 0.88 0.93 0.90 0.91 0.93 0.95 0.91 0.90 0.90 0.92 0.93 0.92 0.90 0.88 0.88 0.91 0.92 0.91 0.90 0.89 0.90 0.93 0.96 0.95 0.94 0.99 1.02 1.05 1.08 1.14 1.19 1.23 1.24 1.24 1.23 1.21 1.19 1.15 1.14 1.14 1.13 1.10 1.09 1.14 1.17 1.18 1.20 1.20 1.15 1.11 1.10 1.09 1.07 1.07 1.14 1.16 1.15 1.16 1.18
Wind_Speed
18 20 21 21 22 22 23 24 25 25 24 25 26 27 28 28 29 28 28 29 29 31 33 34 35 36 35 34 33 33 34 36 37 37 37 37 38 40 41 41 42 42 42 41 40 40 40 40 40 39 38 37 39 39 37 36 34 33 32 30 28 26 24 23 23 23 22 22 22 22 21 20 19 18 17 17 16 16 16 15 14 13 13 13 13 13
19 21 21 21 22 23 23 24 25 25 26 26 27 27 28 29 30 29 29 30 29 31 33 34 35 37 36 35 34 34 36 37 38 38 38 39 38 39 41 42 43 43 42 41 41 41 41 40 40 40 38 38 39 40 39 38 35 34 33 32 29 28 26 24 24 23 22 22 22 21 20 19 18 17 17 16 16 16 16 16 15 14 14 14 14 14
20 21 21 20 21 22 22 23 24 25 26 26 26 27 28 28 28 28 29 29 28 30 32 33 35 37 36 35 35 35 36 37 37 38 39 39 40 40 41 42 43 43 43 42 42 41 41 41 40 39 39 39 40 40 40 39 36 35 34 33 31 29 27 26 25 24 23 22 22 21 20 18 17 17 17 17 16 17 17 16 16 15 15 15 14 14
20 19 19 19 20 21 22 22 23 25 25 26 26 27 28 28 28 27 27 27 28 30 32 32 34 37 36 35 35 36 37 38 38 38 40 40 41 42 42 42 43 43 44 44 43 42 42 42 41 40 39 39 39 40 41 39 36 35 35 34 33 31 29 27 26 25 24 23 23 22 20 18 18 18 18 17 17 17 17 17 16 16 16 15 15 15
20 19 18 20 20 22 23 23 24 25 26 27 28 28 29 28 28 29 28 28 29 31 33 32 33 36 36 35 35 35 37 38 38 38 39 40 42 42 43 44 44 45 45 44 44 43 43 43 42 42 40 39 39 40 41 40 37 36 36 36 34 32 30 28 27 26 25 24 24 23 21 19 19 19 19 18 18 18 18 17 17 17 16 16 15 15
17 17 18 20 21 22 24 25 25 25 26 27 28 29 30 29 29 30 29 28 28 30 30 29 31 33 33 33 34 33 34 36 37 38 39 39 40 42 43 44 45 45 46 45 45 45 44 44 43 42 41 40 40 41 42 40 38 37 37 37 35 33 31 30 29 27 26 25 25 24 23 21 20 20 20 19 19 18 18 17 17 17 17 16 16 15
12 13 14 18 20 22 24 25 25 24 26 26 26 26 28 29 28 29 29 28 28 28 26 26 29 32 32 33 34 33 34 36 36 36 38 38 38 40 42 43 44 45 46 46 46 46 45 45 44 43 43 42 41 41 41 40 38 37 38 38 37 35 33 32 30 28 27 25 25 25 24 22 21 21 20 19 19 19 18 17 17 17 17 17 16 16
10 11 12 15 18 20 21 23 22 23 26 26 23 23 25 27 27 28 28 28 28 28 27 28 30 32 34 34 32 33 35 37 37 37 38 38 37 38 40 42 43 44 45 46 47 47 46 46 45 45 44 43 42 41 40 39 38 38 39 39 38 36 34 33 31 30 28 26 25 25 24 22 22 21 21 20 19 18 18 18 18 17 17 17 17 16
11 11 11 12 14 17 18 19 19 22 25 25 23 24 25 25 26 27 27 27 28 28 29 30 29 31 34 33 30 31 35 36 37 37 38 37 36 36 38 40 42 43 44 46 47 48 47 47 47 46 45 44 42 41 41 40 38 38 39 39 38 37 36 34 32 31 29 27 25 25 24 23 22 22 21 20 19 18 18 19 19 18 17 17 17 17
13 12 12 11 12 13 14 16 17 20 22 22 22 23 24 24 25 25 26 26 27 28 30 31 29 29 33 32 29 30 33 35 36 36 36 37 37 37 36 39 41 42 43 45 47 48 48 48 47 46 45 44 43 42 42 40 39 39 39 40 39 38 37 35 33 32 30 29 26 25 25 24 23 22 21 21 20 19 19 19 19 18 18 17 17 18
15 14 13 12 12 11 11 12 13 17 19 19 19 21 22 23 24 25 25 25 26 28 31 33 31 30 31 32 30 30 32 34 34 35 36 36 37 38 37 38 41 42 43 44 46 48 49 49 48 47 46 46 44 43 42 41 40 40 40 40 40 39 38 36 34 33 31 30 28 26 25 24 23 22 21 22 22 20 20 20 20 19 18 18 18 18
16 15 12 11 11 10 10 10 11 12 15 15 17 18 20 21 22 23 24 24 26 29 31 31 30 30 32 32 31 31 33 35 35 36 37 36 37 37 36 37 40 41 42 43 45 47 49 49 49 48 47 47 46 44 44 43 41 41 41 41 40 40 39 37 35 33 32 31 29 27 26 25 24 22 22 23 22 21 21 20 20 20 19 18 18 18
16 14 13 12 11 10 9 10 10 11 12 14 15 16 17 19 19 21 22 22 25 28 27 27 28 30 33 34 34 34 34 35 35 36 37 37 38 37 36 36 39 41 42 43 44 46 48 49 49 49 48 48 47 46 46 44 42 42 42 42 42 41 40 38 36 34 33 31 29 28 27 26 24 23 23 23 23 22 21 21 21 20 19 18 18 19
16 13 13 13 12 9 9 10 11 11 11 13 15 15 17 17 17 20 21 21 23 25 24 24 26 28 30 32 34 35 35 35 36 37 38 39 39 39 39 38 39 42 43 44 45 46 48 49 50 49 49 49 48 47 47 45 44 43 43 43 43 42 41 39 37 35 34 32 30 28 27 26 25 24 23 23 23 23 22 22 21 21 20 19 19 19
15 14 12 13 13 11 10 10 11 12 12 14 15 16 18 19 18 19 19 18 20 21 22 23 23 25 27 27 28 31 33 34 35 37 39 40 40 40 40 40 40 43 44 44 45 47 48 50 50 50 50 50 49 48 48 47 45 45 45 44 43 43 42 40 38 36 34 32 30 29 28 27 25 24 23 23 23 23 23 22 22 22 21 20 20 19
15 15 13 13 14 13 12 11 11 13 14 14 15 17 19 19 18 18 18 18 18 19 22 24 24 25 27 28 28 30 32 33 35 38 39 39 40 40 39 39 40 43 44 44 45 47 48 49 51 51 51 51 50 49 49 48 47 47 46 44 44 43 42 41 39 37 34 32 30 29 29 28 26 25 24 24 24 23 23 23 23 22 21 20 20 20
15 15 15 15 16 14 12 12 11 11 12 12 14 18 19 17 17 18 19 18 18 21 23 24 25 27 27 29 31 31 32 32 34 37 38 39 39 38 38 38 39 42 44 44 44 46 48 50 51 52 52 51 51 50 50 49 48 48 46 44 44 44 43 42 40 37 35 32 31 30 30 28 27 26 25 25 24 24 23 23 23 22 21 21 20 20
15 17 17 16 16 14 12 13 13 13 13 13 13 15 15 16 18 18 17 16 17 20 21 22 25 26 25 26 27 27 28 28 29 31 34 37 38 37 37 37 38 41 43 43 43 45 48 50 51 52 52 52 52 51 50 49 48 48 46 45 44 44 44 43 41 38 35 33 32 31 30 29 27 26 25 25 25 24 23 23 23 22 22 21 20 20
15 17 17 15 14 14 13 14 14 14 15 14 13 12 12 14 16 17 16 15 16 18 18 20 23 25 25 25 24 24 26 26 25 26 27 29 31 33 34 36 37 39 41 41 41 44 47 50 51 52 53 53 53 52 50 49 48 48 47 46 44 44 44 43 41 38 36 34 33 31 31 30 28 26 25 25 25 25 24 24 23 23 22 21 20 20
15 16 16 14 13 15 15 14 15 14 13 13 13 13 13 13 14 15 15 15 15 16 17 18 20 20 21 21 20 22 23 23 22 22 22 23 25 27 29 32 35 37 39 39 40 42 46 49 51 52 53 53 53 52 50 49 49 49 48 46 45 44 44 43 42 40 37 36 34 32 31 30 28 27 25 25 25 25 25 24 24 23 22 21 21 20
15 14 16 15 14 16 16 14 14 15 13 11 12 13 14 13 12 13 15 15 15 15 15 14 15 15 15 15 16 18 18 19 19 19 19 20 22 24 27 30 34 37 38 39 39 40 43 48 51 51 52 52 52 52 51 50 49 49 49 48 46 46 45 44 42 40 38 37 35 33 32 31 29 27 26 25 26 26 25 25 25 24 22 22 21 21
15 14 16 18 17 16 16 15 14 14 13 12 11 12 14 13 12 11 12 12 13 14 13 12 12 14 13 11 12 13 14 15 16 16 17 18 20 22 24 27 31 34 36 38 39 40 42 46 50 51 51 52 52 52 51 50 50 49 49 48 47 46 45 44 42 41 39 38 36 34 33 31 29 27 26 25 26 26 26 26 25 24 23 22 21 21
15 16 17 19 19 18 17 17 15 13 12 10 9 10 11 11 12 11 10 9 11 12 12 11 12 12 9 7 8 9 11 13 15 15 15 16 18 19 21 24 27 31 34 36 38 39 41 45 49 50 51 51 52 53 52 50 50 50 49 48 47 46 46 44 43 42 40 39 36 35 33 31 29 28 27 26 26 26 26 26 25 24 23 22 21 21
15 16 17 19 20 17 15 15 14 11 8 8 6 7 8 10 10 10 9 8 9 10 11 10 11 12 8 5 7 8 9 12 14 15 15 14 16 17 19 21 23 26 30 33 36 38 40 44 47 48 50 51 52 53 52 51 50 50 48 47 46 46 46 44 43 42 41 39 37 35 34 32 30 29 28 26 26 26 26 26 26 25 24 23 22 21
15 16 16 18 19 16 14 14 12 10 7 6 5 5 7 9 9 8 8 8 9 12 12 11 11 13 10 6 6 8 9 10 11 14 15 14 14 16 17 19 21 23 26 29 32 35 39 43 46 48 49 50 51 52 52 51 50 50 48 47 46 45 45 44 43 43 41 39 38 36 34 33 31 29 28 27 26 26 26 26 26 25 24 23 22 21
16 16 15 16 17 16 15 14 12 10 7 4 4 5 7 9 10 9 8 9 10 11 12 12 13 14 12 8 8 9 10 11 11 12 13 13 13 16 18 20 21 21 23 26 29 33 37 41 44 47 48 49 50 51 51 50 50 49 48 47 46 45 45 44 44 43 41 40 38 37 35 34 32 30 28 27 27 27 26 27 27 26 24 23 22 22
16 17 16 16 16 16 17 15 12 10 8 5 3 5 7 9 11 10 8 9 10 8 9 14 15 16 14 12 10 9 9 11 11 10 11 12 13 16 18 21 21 21 23 25 25 29 34 39 42 45 47 48 49 50 50 50 50 48 47 46 45 44 44 44 43 42 41 40 39 37 36 34 32 30 28 27 27 27 26 27 27 26 25 24 23 22
17 18 18 17 17 16 17 15 12 9 7 6 5 5 6 7 9 11 11 11 8 6 10 13 13 13 14 12 11 10 9 9 9 10 13 14 14 15 18 21 22 23 24 25 25 26 31 37 41 43 46 47 48 49 49 50 49 47 46 45 44 43 43 43 43 42 41 40 39 38 36 35 33 31 29 28 27 27 27 27 27 27 25 24 23 23
17 18 18 18 16 15 15 14 11 7 7 6 5 5 6 7 8 11 13 12 10 10 13 13 11 12 14 13 12 11 10 9 11 13 15 16 16 16 17 19 22 23 25 26 26 25 28 35 40 42 44 46 47 48 48 48 48 46 45 44 43 43 42 42 43 42 41 40 40 38 37 35 34 32 30 28 28 28 27 27 27 27 26 25 24 23
17 18 20 18 16 15 14 11 9 6 5 4 4 5 6 7 8 9 11 12 13 15 17 16 16 16 14 13 13 12 10 11 12 13 15 16 17 18 18 19 20 21 24 26 25 24 26 32 38 41 43 44 46 47 47 47 47 46 45 44 43 42 42 42 42 41 39 39 39 38 37 36 34 32 31 29 29 28 28 28 28 27 26 25 24 23
16 19 21 18 16 15 11 9 8 6 3 2 3 4 5 6 7 9 10 11 13 15 16 16 16 15 11 10 11 12 12 12 12 13 14 15 16 17 18 19 20 20 23 25 24 23 25 30 36 40 42 44 46 46 46 46 46 46 46 45 44 43 43 42 41 40 39 38 38 38 37 36 34 33 32 30 29 29 29 28 28 27 27 26 25 24
16 19 21 18 15 13 10 10 10 7 3 1 3 4 5 6 7 8 9 10 11 13 13 13 14 13 10 10 11 13 13 13 12 12 14 15 15 16 17 19 20 20 23 24 23 24 25 28 33 38 41 43 45 46 45 45 44 44 45 45 45 44 43 42 41 40 39 38 38 38 37 36 35 34 33 31 30 29 29 28 28 28 27 27 26 25
15 19 20 17 13 12 11 11 10 8 7 6 4 5 6 6 7 8 9 9 10 10 11 11 12 12 12 12 13 14 13 12 11 12 13 14 15 15 16 18 20 21 23 25 24 24 26 28 31 35 38 41 44 45 45 44 44 44 45 45 44 43 43 42 42 41 40 39 38 38 37 36 35 35 34 32 30 30 29 29 28 28 28 27 26 25
16 18 18 15 11 11 13 12 8 7 10 10 7 6 7 7 7 7 8 9 10 9 10 11 12 12 13 13 14 14 14 13 13 14 14 13 14 15 15 17 19 20 22 23 24 24 26 28 30 33 36 40 42 43 43 43 43 43 44 44 43 42 43 43 42 41 41 39 39 38 38 37 36 35 34 32 31 30 30 29 29 28 28 27 26 26
15 17 17 14 10 10 13 11 8 8 10 11 10 7 8 8 7 8 10 11 10 9 8 9 10 12 13 14 15 15 15 16 15 16 16 14 13 14 14 16 18 19 20 21 22 24 25 27 29 32 36 39 40 41 42 42 43 42 42 42 42 42 42 42 42 42 41 39 39 39 39 38 37 36 34 33 32 31 31 30 29 29 28 27 27 27
14 15 15 14 11 11 11 10 9 9 10 12 12 10 10 10 8 8 10 8 6 5 5 7 9 11 13 15 15 15 15 16 16 15 14 12 12 12 11 14 16 16 17 19 20 21 23 26 29 32 36 38 40 40 41 41 42 41 41 41 41 41 41 41 41 41 40 40 40 40 39 38 37 36 34 33 32 31 31 31 30 30 29 28 28 27
12 13 14 13 12 11 11 9 8 9 11 15 16 13 13 12 10 8 8 4 2 3 6 10 11 12 13 14 14 14 14 13 12 11 8 9 10 10 10 12 14 14 15 17 18 19 21 25 28 32 35 38 39 40 40 40 41 41 41 41 41 41 40 40 40 40 40 40 40 40 39 38 37 36 35 33 32 32 32 32 31 30 30 29 28 27
12 12 13 12 12 12 11 9 8 9 12 17 19 17 14 13 11 7 4 3 3 5 9 12 13 13 13 13 13 13 12 11 8 6 5 6 8 8 8 9 11 11 13 14 15 16 20 24 28 32 35 37 39 39 39 39 40 41 40 40 40 40 40 40 40 40 40 40 40 40 39 38 38 37 35 34 33 33 33 32 31 31 30 29 28 28
11 10 11 11 12 13 11 9 9 10 12 16 19 19 17 15 12 8 3 3 6 9 12 14 14 14 13 11 10 10 9 8 6 4 4 5 7 7 7 7 8 9 11 13 13 14 18 23 27 31 34 36 38 39 39 39 40 40 39 40 40 40 39 39 39 39 39 39 39 39 39 38 38 37 36 34 33 33 33 32 31 31 30 30 29 28
11 11 11 12 12 13 12 9 8 8 11 16 19 20 19 16 12 9 6 8 12 14 15 14 13 13 12 10 10 8 7 6 5 6 6 8 8 7 6 7 7 7 9 11 11 12 16 22 26 30 33 35 37 38 38 39 39 39 39 39 39 39 39 39 39 38 38 39 39 39 39 38 38 37 36 35 33 33 33 32 31 31 30 30 29 28
12 11 11 12 12 11 11 10 8 7 10 16 19 20 20 16 12 10 11 14 16 16 14 13 13 13 12 12 10 9 8 7 7 9 9 8 7 7 6 7 6 6 8 10 11 12 16 20 25 29 32 34 35 36 37 38 38 38 38 38 39 39 39 38 38 38 38 39 39 39 38 38 38 37 36 35 33 33 33 32 32 32 31 29 29 28
11 11 10 11 11 11 10 10 9 7 10 16 20 20 19 15 13 13 15 17 18 16 15 14 13 13 13 13 11 10 11 11 9 10 9 8 7 7 6 6 6 6 8 9 10 12 16 19 23 27 30 32 33 35 36 36 36 36 36 37 37 38 38 38 38 38 39 39 39 38 38 38 38 38 36 35 34 34 33 32 32 32 31 29 29 28
11 11 10 10 11 10 10 9 9 8 11 17 20 18 17 16 16 16 18 18 17 16 15 15 14 13 14 14 12 11 12 12 11 9 9 9 8 7 6 6 6 6 7 9 10 12 15 19 22 25 28 29 31 33 34 35 34 34 34 36 36 36 36 37 37 38 38 39 39 38 38 38 39 38 37 35 34 34 33 32 32 32 30 29 29 28
9 9 10 9 10 10 10 9 9 10 14 17 17 15 16 17 17 17 17 17 18 17 15 14 14 15 14 14 14 13 12 12 11 10 9 9 8 8 7 7 7 6 8 10 10 11 14 18 21 24 26 28 30 31 32 33 33 34 34 35 34 34 34 35 36 36 37 38 38 39 39 39 39 39 37 36 35 34 33 32 32 31 30 29 29 28
9 10 10 10 9 9 10 11 12 13 15 15 15 15 16 17 18 18 17 17 17 18 16 15 14 15 15 15 15 13 12 12 11 11 10 9 8 8 8 7 7 7 8 10 11 11 13 17 20 23 26 27 29 30 31 32 33 33 34 33 33 33 33 34 34 34 34 34 35 37 38 39 39 38 36 36 35 34 32 32 31 31 30 30 29 29
10 11 10 10 11 11 10 12 13 15 15 16 16 15 15 16 18 18 18 18 19 19 18 16 14 14 15 16 15 13 12 12 11 11 10 9 9 8 8 7 8 8 8 10 11 12 13 16 19 22 25 27 29 30 31 31 32 32 32 32 32 32 33 33 34 34 33 33 33 34 35 35 35 34 33 33 34 32 31 31 31 31 30 30 29 28
10 10 11 12 14 13 12 12 14 16 17 17 15 15 15 17 19 19 18 19 21 20 18 16 15 14 15 17 16 13 11 10 9 9 10 10 9 8 8 7 8 8 8 9 11 13 14 16 19 21 24 26 28 29 29 29 30 31 31 31 32 32 32 33 33 33 33 33 32 33 33 32 32 32 31 31 31 31 31 31 31 31 30 30 29 27
11 12 12 13 14 14 14 15 17 19 17 13 12 13 16 18 20 21 20 20 21 21 18 17 16 15 16 18 17 13 11 10 7 6 9 10 9 8 8 8 8 8 8 8 11 13 14 16 18 20 23 25 26 27 28 28 28 29 30 31 31 32 32 32 32 31 31 31 32 32 33 32 32 32 32 31 31 31 31 31 31 30 30 29 29 27
13 13 13 14 14 14 14 15 18 18 14 11 12 16 19 20 21 21 21 21 22 22 20 18 17 16 16 18 17 13 11 8 5 4 6 7 8 8 8 8 8 9 9 9 10 13 14 16 17 19 21 23 25 26 28 28 28 29 30 30 30 31 31 31 31 31 31 30 31 32 33 33 32 32 32 32 32 32 31 31 31 30 30 30 29 28
13 14 14 14 14 13 13 15 17 15 13 13 17 20 21 21 21 21 20 21 21 22 21 19 18 17 17 18 15 13 12 9 4 3 3 4 6 7 8 9 9 10 10 10 11 12 14 15 16 18 20 22 23 25 26 27 28 29 30 30 30 31 31 31 31 31 31 31 30 29 31 33 33 32 32 32 32 32 32 31 30 30 29 29 29 28
13 14 14 14 14 14 15 17 16 15 15 17 19 21 21 20 20 20 20 20 20 21 20 19 18 18 17 16 14 13 13 11 5 2 2 3 4 5 7 9 9 10 10 11 12 13 14 14 16 18 19 21 22 24 25 27 28 30 31 30 30 30 31 31 30 30 30 31 30 29 30 32 33 33 33 33 32 32 32 31 30 29 29 28 27 26
Wind_Direction
264 260 256 256 255 252 249 247 248 248 248 249 249 249 249 250 249 247 247 248 248 249 247 246 247 248 247 246 245 245 244 242 240 238 236 233 231 231 230 230 230 230 231 230 228 227 227 227 226 226 226 223 222 223 221 220 224 224 222 223 224 222 221 220 219 217 216 216 217 219 221 223 225 228 232 237 240 241 241 240 240 243 247 250 248 247
264 262 260 259 257 254 250 247 247 248 249 249 250 251 251 250 251 251 250 250 249 249 248 248 250 249 247 246 245 244 243 241 239 238 237 234 233 232 231 230 230 230 231 230 229 228 227 226 225 225 225 223 221 221 220 220 224 224 221 221 221 221 219 217 215 214 215 216 216 217 219 221 225 229 233 238 241 242 240 239 240 243 247 249 247 246
265 264 263 258 255 253 251 249 247 248 249 249 249 251 251 250 252 252 251 249 248 248 250 251 252 249 248 247 245 243 242 241 240 239 237 235 233 232 231 230 230 230 230 229 229 228 227 225 224 224 224 223 222 221 219 220 223 222 219 220 220 219 218 215 214 213 214 215 215 216 218 221 227 232 235 239 242 241 240 239 240 243 246 247 246 245
269 267 265 258 254 253 253 250 248 249 250 249 249 250 251 250 251 250 248 249 250 249 251 254 253 251 248 247 244 242 241 241 241 239 237 235 233 232 232 231 230 229 229 229 228 228 226 225 224 223 223 222 222 220 219 219 221 220 218 218 218 218 216 214 214 213 213 216 217 219 222 225 230 235 238 241 243 242 240 239 240 242 244 245 246 244
273 268 265 260 256 254 254 251 248 251 252 250 248 250 251 251 250 250 250 253 253 251 251 253 255 251 247 247 245 242 240 240 240 239 237 235 233 232 232 232 231 230 229 229 228 227 226 225 223 223 223 222 221 219 218 219 220 220 217 216 216 217 215 214 214 213 214 217 220 222 226 229 234 238 240 242 243 242 240 239 240 241 242 244 245 244
283 273 266 263 259 256 255 253 249 250 254 253 249 248 251 252 251 250 251 252 252 251 249 248 251 249 244 245 245 242 241 240 239 239 238 235 233 231 230 231 231 230 229 229 228 227 227 225 223 223 222 221 220 218 218 220 220 219 217 215 215 216 214 214 215 215 216 219 221 224 227 231 236 240 243 244 242 240 239 240 241 241 241 243 243 243
303 288 272 268 265 259 256 255 250 248 253 255 250 248 249 250 250 249 249 248 248 249 247 244 248 250 246 245 245 244 244 243 241 240 239 237 235 232 229 229 231 231 229 228 228 227 226 225 224 223 222 221 220 219 219 220 220 219 217 214 215 215 214 214 215 216 218 220 222 225 228 232 236 240 243 244 242 240 239 240 240 241 240 241 242 242
335 315 292 278 272 266 261 258 251 245 250 252 248 247 248 248 248 248 248 247 248 250 249 245 248 251 250 247 244 245 246 245 243 241 239 238 236 233 230 229 230 230 229 228 227 226 225 225 224 223 222 221 221 220 219 218 218 218 217 214 214 214 213 214 216 217 219 222 223 225 228 233 237 239 241 243 241 240 239 239 239 239 239 239 241 242
348 330 317 301 285 274 267 262 253 246 250 251 248 249 250 249 249 249 249 249 250 251 250 245 245 249 249 246 243 245 247 246 244 241 240 239 238 235 230 228 229 230 229 228 227 226 224 224 224 224 223 221 221 220 218 217 217 217 216 214 213 213 213 215 216 218 220 222 224 227 230 233 237 239 240 240 239 239 239 238 237 237 237 238 240 241
343 335 331 322 305 290 277 266 255 248 251 254 252 251 250 248 248 249 249 250 250 249 248 245 243 247 250 247 243 244 245 246 245 243 241 240 240 238 233 229 229 230 230 229 227 226 224 223 223 223 222 221 221 220 218 217 217 216 214 212 212 213 213 215 216 218 220 223 226 229 231 234 237 238 239 238 237 237 237 236 236 236 237 239 240 241
336 334 329 320 310 305 293 277 259 250 251 255 255 253 252 250 249 250 249 249 249 247 247 247 244 247 251 249 244 243 244 246 246 245 243 241 240 240 236 230 229 230 231 230 228 225 224 223 222 222 221 221 220 219 217 216 215 214 213 212 212 213 214 215 216 218 220 224 227 229 231 234 236 237 238 237 235 235 236 235 235 235 237 239 240 241
337 335 335 327 313 306 297 284 271 259 253 252 253 254 256 254 251 251 248 245 247 248 248 248 246 247 249 248 245 245 245 246 246 245 244 242 241 240 238 233 229 228 229 229 228 225 223 222 221 221 220 219 219 217 215 215 214 213 212 212 212 213 213 214 216 218 221 224 228 230 232 234 236 237 238 236 234 234 235 235 235 235 237 240 241 242
337 338 344 340 326 312 299 286 277 271 261 253 250 251 253 253 251 250 247 244 247 250 250 249 248 247 248 249 248 248 247 246 246 245 244 243 242 241 240 235 229 226 226 227 227 226 223 221 220 219 219 218 217 216 214 214 214 213 212 211 212 213 213 214 216 218 221 224 227 230 232 235 237 237 238 236 234 235 235 235 234 234 236 239 240 241
340 342 346 344 337 322 304 292 280 274 268 256 249 248 249 250 249 248 248 249 251 252 251 249 248 249 250 250 247 247 248 248 247 245 244 244 243 242 241 238 231 227 226 227 226 226 224 221 219 218 218 217 216 216 214 213 213 212 211 210 211 213 213 214 216 218 221 224 227 230 233 236 237 237 238 236 235 235 235 235 234 233 236 238 240 240
339 338 340 342 343 330 306 293 284 279 275 265 254 249 248 249 249 249 249 251 253 255 252 247 246 247 249 249 247 247 249 249 248 246 244 243 242 241 241 238 232 228 226 226 226 225 224 222 220 218 217 216 216 215 214 213 213 211 211 211 211 212 213 214 216 218 221 223 227 231 234 236 237 238 238 237 235 235 235 234 233 233 235 238 239 240
333 328 332 335 337 330 311 299 291 283 279 274 261 251 249 249 250 253 254 254 256 259 254 248 249 250 252 254 254 253 252 251 250 248 246 243 241 240 239 237 233 227 226 226 225 225 224 222 220 217 216 216 215 214 214 213 213 212 211 211 212 213 214 215 217 219 221 223 227 231 234 235 237 237 237 236 235 235 235 233 233 233 235 237 238 240
331 327 331 330 326 322 312 307 297 281 284 287 268 253 250 250 251 253 255 254 254 256 254 251 253 255 257 257 255 255 255 254 251 248 246 243 241 239 237 237 233 228 226 226 225 224 223 222 220 218 216 215 214 213 214 214 213 213 212 212 213 215 215 216 217 219 221 223 227 231 233 234 236 237 236 235 234 234 234 233 232 233 235 237 238 239
328 322 325 323 319 322 319 313 300 281 281 290 279 260 252 248 247 249 253 250 248 253 254 252 255 257 258 256 253 253 256 257 254 250 248 244 240 238 237 235 232 228 225 225 225 224 222 221 220 218 216 215 214 213 213 214 214 214 214 214 214 215 216 216 217 219 220 223 227 231 232 233 235 236 235 235 234 233 233 232 232 233 235 236 237 239
332 324 326 323 319 328 326 316 310 293 279 283 284 270 253 246 241 240 246 250 250 254 257 256 258 258 257 255 254 255 257 258 255 250 248 246 240 236 234 233 230 226 223 222 222 222 221 220 219 217 216 215 214 213 213 214 214 214 215 215 215 216 216 216 216 219 221 223 227 230 231 231 233 235 235 235 233 232 232 231 231 233 234 236 237 238
334 327 329 330 326 329 325 316 316 306 288 285 283 265 251 249 246 240 242 250 253 257 262 264 263 259 254 250 254 259 257 252 249 246 246 246 241 234 232 231 228 226 224 222 222 221 220 219 218 217 215 214 213 213 213 213 213 214 214 214 214 215 215 215 216 218 220 223 226 229 229 230 232 234 235 235 233 231 231 230 231 233 234 235 236 237
331 323 324 328 326 324 320 317 318 311 299 289 273 254 246 246 248 246 245 249 253 257 262 265 263 258 249 246 253 258 252 241 238 242 244 241 239 235 233 230 227 226 226 225 223 221 220 218 217 216 214 214 213 213 213 213 213 213 214 213 214 214 214 214 215 217 220 223 225 227 228 229 231 233 234 234 232 231 230 230 231 233 234 234 235 236
331 324 320 322 322 318 317 319 316 309 305 296 270 248 241 239 242 247 245 245 247 250 254 257 264 263 250 244 251 251 245 235 230 239 244 238 235 235 234 231 226 225 226 225 224 223 220 218 216 215 214 213 212 212 212 213 213 213 213 213 213 213 214 215 215 217 219 222 224 225 226 228 229 232 233 233 232 230 230 230 231 233 233 233 234 235
331 327 320 319 320 318 320 323 317 307 306 306 280 247 238 234 235 241 244 241 239 241 245 251 261 261 247 238 244 242 242 236 232 241 246 236 232 233 233 231 227 224 225 225 224 223 220 217 215 213 213 212 212 212 211 211 212 212 212 213 213 213 214 215 216 217 219 221 222 223 225 226 228 230 231 232 231 230 229 230 231 232 232 232 233 234
331 330 323 323 328 330 329 332 330 322 312 305 283 246 230 226 228 236 244 244 240 240 243 247 250 251 254 255 246 241 242 235 233 243 246 236 230 230 231 231 227 225 225 225 224 222 219 216 214 212 211 211 211 211 210 211 211 212 212 212 212 213 213 214 215 216 218 219 220 221 224 225 226 228 230 231 231 229 228 228 230 231 231 231 232 233
329 329 328 330 337 342 342 345 349 349 333 302 281 242 223 222 227 237 243 246 254 251 245 249 254 256 267 270 250 250 250 241 240 247 246 236 229 229 229 228 227 227 226 225 224 221 218 214 212 211 210 210 210 210 209 210 211 211 211 212 211 212 213 214 215 216 217 218 219 220 222 224 225 227 229 231 231 228 227 227 229 230 230 230 230 231
328 325 325 328 334 338 339 341 347 351 346 319 276 235 223 221 223 233 240 244 256 255 243 246 257 264 270 265 254 260 259 254 254 249 241 234 231 233 230 225 225 226 225 225 224 220 215 212 211 210 209 209 209 209 209 209 210 211 211 211 211 212 212 213 214 216 217 217 218 219 222 223 224 226 228 230 230 228 227 227 228 229 229 228 229 230
330 324 320 316 318 324 327 329 332 334 333 319 272 230 224 222 222 229 238 242 251 258 252 250 253 260 268 267 262 264 261 257 257 246 239 240 237 235 230 227 228 229 226 225 223 217 213 211 209 209 208 208 208 208 208 209 209 210 210 210 211 211 212 213 214 215 215 216 217 219 221 223 224 225 227 229 229 227 226 226 227 228 228 227 227 228
335 329 327 319 313 315 321 326 327 317 305 298 282 245 234 231 229 231 236 243 253 262 260 255 249 250 260 267 269 271 268 261 258 252 250 251 247 239 232 229 231 230 226 225 222 216 212 210 208 207 208 208 207 207 208 208 208 209 209 209 210 211 212 213 213 214 214 216 217 218 221 223 224 225 226 227 228 226 225 225 226 227 227 226 227 227
341 335 337 331 321 321 325 330 332 316 291 284 276 259 248 242 239 239 244 250 252 249 253 260 261 255 259 267 273 276 275 270 269 264 256 254 253 245 234 227 229 229 225 223 221 216 212 210 207 206 206 207 206 206 207 207 208 208 208 208 209 210 212 212 213 213 214 215 217 218 220 222 223 224 225 226 226 225 224 225 226 226 226 226 226 227
346 342 344 340 330 329 331 334 341 329 294 275 264 262 257 250 248 251 257 258 253 249 255 266 272 267 263 267 274 278 277 274 276 270 259 257 256 248 238 232 232 230 224 220 218 216 214 211 208 205 205 206 206 205 206 207 207 207 207 208 209 209 210 211 211 212 213 215 216 218 219 221 222 223 223 224 225 224 224 224 225 225 224 225 226 226
347 346 350 348 339 340 346 350 350 342 311 282 281 277 270 265 261 260 263 262 257 256 262 266 267 266 267 273 278 280 280 279 279 273 265 264 260 250 242 239 237 232 224 218 217 217 214 211 208 206 205 205 205 205 205 206 207 207 207 208 209 209 210 210 211 212 214 216 216 217 218 220 221 222 222 223 224 224 223 224 225 224 224 224 225 225
347 347 352 352 347 353 6 7 4 14 39 353 313 306 297 283 274 271 268 262 257 259 264 261 258 264 281 293 287 282 282 281 279 275 273 269 259 248 242 241 241 234 224 219 219 219 216 210 207 206 205 206 206 205 206 206 206 207 207 209 210 211 211 212 213 214 215 216 216 216 217 218 220 220 220 221 223 223 223 223 224 223 223 224 224 225
349 350 353 356 355 358 8 13 22 45 49 23 353 340 331 306 284 281 279 270 263 261 260 259 263 276 293 298 292 287 287 283 279 279 280 270 253 244 242 242 240 234 226 222 222 221 218 213 209 207 206 206 206 206 206 206 206 207 208 209 210 211 211 212 213 214 215 215 216 216 216 217 218 219 219 220 222 223 223 223 223 223 223 223 223 224
350 353 357 3 2 358 6 16 32 49 38 22 8 358 350 331 303 292 290 282 275 271 267 270 280 290 296 296 293 291 291 288 284 283 280 265 244 240 243 240 236 231 227 225 223 221 218 214 211 209 207 205 205 205 206 207 207 207 208 209 210 210 211 213 214 214 215 215 215 215 215 215 217 218 218 219 221 222 222 222 223 223 222 222 222 224
348 354 1 7 5 358 4 16 28 33 26 13 2 356 346 329 307 296 297 288 274 271 278 286 293 296 297 296 292 290 291 291 288 285 278 260 237 235 241 237 232 229 229 228 225 221 218 215 213 210 208 206 204 203 204 205 205 206 207 208 209 210 211 212 213 214 214 214 215 214 214 214 216 217 217 218 220 222 222 222 223 223 222 222 223 224
346 353 360 5 6 2 2 11 20 21 13 4 1 357 346 337 324 311 312 300 262 256 297 310 304 302 303 299 292 290 292 293 290 285 273 247 226 229 239 236 231 230 233 231 226 222 220 218 215 210 206 204 203 202 203 203 204 204 206 207 208 209 210 211 212 213 213 213 213 213 213 213 215 216 216 217 220 221 221 222 223 223 221 221 222 223
343 351 357 2 8 5 359 2 13 16 12 8 5 0 353 347 336 321 322 325 260 264 308 315 306 304 308 303 296 295 296 295 290 281 258 224 219 232 243 236 228 232 237 232 226 224 222 218 213 207 203 201 201 201 202 202 203 204 205 206 207 208 209 210 211 211 211 211 212 212 212 213 214 214 215 217 220 221 221 222 223 222 221 221 222 223
340 350 355 360 5 2 356 0 13 17 13 8 5 2 358 353 348 342 333 333 317 298 308 313 309 307 309 304 296 296 298 298 289 263 229 220 232 245 246 231 226 235 238 230 225 225 220 212 207 203 200 199 199 200 200 201 201 202 204 205 206 208 209 210 210 210 210 210 211 211 212 213 213 214 215 217 220 221 221 221 222 221 221 221 222 223
341 346 353 359 3 3 359 360 10 17 12 6 5 6 2 356 359 8 5 338 338 326 317 315 311 308 309 306 301 300 301 301 286 241 226 250 258 258 246 231 235 245 238 227 226 225 215 206 201 199 198 198 198 199 200 200 201 203 204 206 207 208 209 210 210 209 209 210 210 210 211 212 213 214 216 218 220 221 220 220 221 221 221 221 222 223
344 346 353 359 0 1 1 357 359 8 6 2 5 7 2 356 359 8 3 347 342 333 324 320 317 315 316 314 309 303 303 303 272 246 263 276 269 261 243 232 244 252 238 227 224 219 209 201 197 197 197 198 198 199 200 201 203 205 206 207 207 208 209 210 210 210 210 210 210 210 211 213 214 215 216 218 220 220 219 219 220 220 220 221 223 224
340 344 351 355 354 356 359 352 346 355 2 3 4 3 358 356 3 9 359 346 340 332 325 322 319 315 315 316 307 291 291 297 273 256 269 278 269 262 245 230 239 243 232 226 219 209 202 197 194 195 196 197 198 199 201 202 204 206 207 207 208 208 209 210 211 211 211 210 210 211 212 213 214 215 216 217 219 219 218 218 220 220 220 221 222 223
336 338 343 349 349 350 350 343 340 349 2 3 2 1 3 7 8 359 347 340 337 331 325 323 319 313 314 316 307 285 283 291 282 265 268 273 270 266 249 234 240 235 219 215 210 201 197 194 192 193 195 196 197 199 200 201 203 204 206 207 208 209 210 210 210 211 211 211 212 212 213 214 214 214 215 217 218 218 217 218 219 219 220 221 222 222
332 333 336 341 342 340 340 344 346 344 348 354 357 2 10 12 2 349 343 342 340 335 331 328 322 317 317 317 311 297 289 290 285 271 266 270 270 264 249 242 246 232 208 204 203 198 195 194 193 193 194 195 196 197 199 200 201 203 205 206 208 209 210 210 210 211 212 212 213 214 214 214 214 213 214 216 217 217 217 218 219 219 220 222 222 222
334 332 327 330 335 335 332 337 340 332 333 344 353 355 356 354 349 346 346 344 341 339 339 335 327 323 322 319 316 308 296 290 285 273 266 269 269 260 247 240 238 227 209 203 202 198 194 193 194 194 194 195 196 197 199 200 201 203 205 207 209 210 210 210 211 212 213 213 213 214 214 215 214 214 214 215 216 216 218 218 218 218 220 222 222 222
332 329 319 314 321 323 314 312 317 320 325 334 340 340 340 341 344 347 346 343 341 341 342 338 331 330 329 325 320 312 298 290 285 274 262 259 259 252 240 233 230 223 211 204 202 197 193 193 194 195 196 197 198 199 200 201 202 204 206 208 209 211 212 211 211 212 213 214 215 215 215 215 215 214 214 215 215 216 217 218 217 218 220 222 222 222
320 322 316 309 312 312 304 301 308 317 325 327 327 330 335 338 341 344 344 344 343 343 343 339 334 336 338 333 326 316 303 294 286 272 258 250 250 247 240 235 230 219 210 205 203 200 196 194 195 197 198 199 200 201 203 204 205 207 208 208 209 211 212 211 211 212 213 215 218 218 216 215 215 214 214 215 215 215 216 218 218 218 220 222 223 224
318 319 314 312 315 313 306 307 313 319 322 320 317 323 333 337 339 341 343 344 344 343 343 341 339 341 344 342 337 325 311 303 291 269 252 243 243 244 241 237 229 220 214 207 203 202 199 196 197 199 201 202 203 204 205 207 208 209 209 210 211 212 212 212 213 214 214 216 218 218 217 216 216 215 214 214 214 215 217 218 217 218 221 223 224 225
321 320 316 315 314 308 303 309 316 315 310 306 309 321 331 336 337 337 338 340 343 343 343 344 344 343 344 346 345 336 321 314 300 269 248 238 236 240 236 231 227 224 221 214 206 204 203 200 200 202 203 205 206 207 208 208 209 210 210 212 213 214 214 215 215 215 216 217 218 219 218 217 216 214 214 214 214 216 217 218 218 220 222 223 224 224
317 317 318 315 312 308 306 312 318 315 306 306 317 324 328 332 333 333 334 337 340 342 342 344 346 347 347 349 352 349 337 325 303 270 249 233 232 238 235 230 229 227 223 217 210 208 206 205 205 205 206 208 209 210 211 212 212 213 213 215 216 216 217 217 218 217 217 218 220 221 219 217 216 215 215 216 217 218 219 220 221 222 223 224 224 223
318 319 320 315 313 313 312 315 320 318 309 309 316 319 323 327 328 329 331 334 337 337 338 339 343 346 349 353 357 359 355 349 324 274 256 233 232 238 235 233 233 228 222 217 212 210 208 207 208 209 210 211 211 212 214 215 216 216 216 217 218 219 220 220 220 220 219 219 220 221 219 217 217 217 217 217 218 219 221 223 224 223 223 223 222 222
321 320 320 317 312 309 307 309 313 311 305 303 308 313 317 322 326 327 329 332 334 335 335 337 339 340 344 351 358 1 1 3 7 340 283 251 245 241 233 230 229 226 223 220 214 211 209 208 209 212 213 213 214 214 215 217 217 217 217 218 220 221 222 222 221 221 222 222 221 220 218 216 216 217 217 218 219 219 222 223 223 222 222 222 221 221